Alturas, CA

4:20 PM PST on January 19, 2017 (GMT -0800)
Alturas Municipal

Weather History for KAAT - December, 2013

Change the Weather History Date:

Monday, December 2, 2013

  Actual Average Record
Temperature  
Mean Temperature 36 °F 31 °F  
Max Temperature 52 °F 42 °F 65 °F (1959)
Min Temperature 20 °F 20 °F 2 °F (2004)
Degree Days  
Heating Degree Days 29 34  
Month to date heating degree days 55 68  
Since 1 July heating degree days 1800 1878  
Cooling Degree Days 0 0  
Month to date cooling degree days 0 0  
Year to date cooling degree days 280 156  
Moisture  
Dew Point 30 °F    
Average Humidity 68    
Maximum Humidity 92    
Minimum Humidity 44    
Precipitation  
Precipitation 0.04 in 0.05 in 1.18 in (2012)
Month to date precipitation 0.04 0.10  
Year to date precipitation 6.16 12.56  
Sea Level Pressure  
Sea Level Pressure 29.95 in    
Wind  
Wind Speed 10 mph (West)    
Max Wind Speed 25 mph    
Max Gust Speed 33 mph    
Visibility 10 miles    
Events Rain    
T = Trace of Precipitation, MM = Missing Value Source: NWS Daily Summary

Daily Weather History Graph

Daily Weather History Graph

Search for Another Location

Airport or City:

Trip Planner

Search our weather history database for the weather conditions in past years. The results will help you decide how hot, cold, wet, or windy it might be!

Date:

Astronomy

Dec. 02, 2013 Rise Set
Actual Time 7:10 AM PST 4:32 PM PST
Civil Twilight 6:39 AM PST 5:03 PM PST
Nautical Twilight 6:05 AM PST 5:38 PM PST
Astronomical Twilight 5:31 AM PST 6:11 PM PST
Moon 6:40 AM PST (12/2) 4:41 PM PST (12/2)
Length of Visible Light 10h 24m
Length of Day
9h 22m
Waning Crescent, 0% of the Moon is Illuminated
Dec 2
Waning Crescent
Dec 2
New
Dec 9
First Quarter
Dec 17
Full
Dec 25
Last Quarter

Hourly Weather History & Observations

Time (PST) Temp. Windchill Dew Point Humidity Pressure Visibility Wind Dir Wind Speed Gust Speed Precip Events Conditions
12:55 AM 23.0 °F - 19.9 °F 88% 30.20 in 8.0 mi Calm Calm - N/A   Clear
1:55 AM 21.0 °F 14.6 °F 18.0 °F 88% 30.17 in 10.0 mi NW 4.6 mph - N/A   Clear
2:55 AM 21.9 °F - 19.9 °F 92% 30.13 in 10.0 mi Calm Calm - N/A   Clear
3:55 AM 25.0 °F - 21.0 °F 85% 30.09 in 5.0 mi Calm Calm - N/A   Clear
4:55 AM 21.0 °F 16.2 °F 17.1 °F 85% 30.11 in 10.0 mi Variable 3.5 mph - N/A   Clear
5:55 AM 27.0 °F 21.6 °F 23.0 °F 85% 30.06 in 10.0 mi East 4.6 mph - N/A   Clear
6:55 AM 25.0 °F 19.3 °F 21.0 °F 85% 30.07 in 10.0 mi South 4.6 mph - N/A   Clear
7:55 AM 37.0 °F 32.4 °F 28.0 °F 70% 30.02 in 10.0 mi SSW 5.8 mph - N/A   Clear
8:55 AM 44.1 °F 40.1 °F 30.0 °F 58% 30.02 in 10.0 mi WSW 6.9 mph - N/A   Scattered Clouds
9:55 AM 46.0 °F 39.3 °F 30.0 °F 54% 30.01 in 10.0 mi West 16.1 mph 24.2 mph N/A   Mostly Cloudy
10:55 AM 51.1 °F - 30.0 °F 44% 29.97 in 10.0 mi WSW 24.2 mph 33.4 mph N/A   Scattered Clouds
11:55 AM 46.9 °F - 30.9 °F 54% 29.96 in 10.0 mi West 18.4 mph 32.2 mph N/A   Overcast
12:55 PM 46.0 °F 38.3 °F 34.0 °F 63% 29.96 in 10.0 mi West 20.7 mph 27.6 mph 0.00 in Rain Light Rain
1:55 PM 44.1 °F 36.8 °F 37.0 °F 76% 29.95 in 10.0 mi West 16.1 mph 24.2 mph 0.00 in Rain Light Rain
2:55 PM 42.1 °F 34.9 °F 39.0 °F 89% 29.95 in 10.0 mi West 13.8 mph - 0.01 in Rain Light Rain
3:55 PM 41.0 °F 34.3 °F 39.0 °F 93% 29.93 in 10.0 mi West 11.5 mph - 0.03 in Rain Light Rain
4:55 PM 39.9 °F 35.8 °F 37.9 °F 93% 29.90 in 10.0 mi West 5.8 mph - 0.00 in   Overcast
5:55 PM 39.9 °F 33.9 °F 37.0 °F 89% 29.87 in 10.0 mi West 9.2 mph - N/A   Overcast
6:15 PM 39.9 °F 33.9 °F 37.0 °F 89% 29.83 in 10.0 mi WSW 9.2 mph - N/A   Mostly Cloudy
6:55 PM 39.9 °F 34.5 °F 37.0 °F 89% 29.87 in 10.0 mi West 8.1 mph - N/A   Overcast
7:11 PM 39.9 °F 34.5 °F 37.0 °F 89% 29.84 in 10.0 mi West 8.1 mph - N/A   Overcast
7:38 PM 39.9 °F 32.9 °F 37.0 °F 89% 29.83 in 10.0 mi WSW 11.5 mph - N/A   Scattered Clouds
7:55 PM 39.9 °F 32.9 °F 36.0 °F 86% 29.84 in 10.0 mi NW 11.5 mph - N/A   Scattered Clouds
8:08 PM 37.9 °F 28.9 °F 33.1 °F 83% 29.83 in 10.0 mi NW 16.1 mph 21.9 mph N/A   Mostly Cloudy
8:55 PM 36.0 °F 25.6 °F 30.0 °F 79% 29.82 in 10.0 mi NW 18.4 mph 28.8 mph N/A   Overcast
9:55 PM 35.1 °F 27.4 °F 27.0 °F 72% 29.85 in 10.0 mi NW 10.4 mph - N/A   Overcast
10:37 PM 35.1 °F 27.9 °F 26.1 °F 70% 29.86 in 10.0 mi NW 9.2 mph - N/A   Overcast
10:55 PM 34.0 °F 28.0 °F 26.1 °F 73% 29.85 in 10.0 mi WNW 6.9 mph - N/A   Overcast
11:55 PM 33.1 °F 26.1 °F 25.0 °F 72% 29.86 in 10.0 mi NNW 8.1 mph - 0.00 in   Overcast